Regional Weather Roundup
Issued by NWS

Home | Current Version | Previous Version | Text Only | Print | Product List | Glossary On
Versions: 1 2 3 4 5 6 7 8 9 10 11 12 13 14 15 16 17 18 19 20 21 22 23 24 25 26 27 28 29 30 31 32 33 34 35 36 37 38 39 40 41 42 43 44 45 46 47 48 49 50
000
ASCA44 KEWX 030020
RWRMX

LATIN AMERICA AND CARIBBEAN REGIONAL WEATHER ROUNDUP
NATIONAL WEATHER SERVICE AUSTIN/SAN ANTONIO TX
700 PM CDT TUE SEP 02 2014

NOTE: "FAIR" INDICATED FEW OR NO CLOUDS BELOW 12,000 FEET WITH NO
SIGNIFICANT WEATHER AND/OR OBSTRUCTIONS TO VISIBILITY.

BAJA CALIFORNIA

CITY           SKY/WX    TMP DP  RH WIND       PRES   REMARKS
LORETO         MOSUNNY   95  77  55 CALM      29.64F HX 109
LA PAZ         PTSUNNY   97  64  34 N7        29.69  HX  99
MEXICALI       SUNNY    108  37   9 SE7       29.61  HX 101
S.J. DEL CABO  PTSUNNY   90  70  51 SE18      29.72F HX  95
TIJUANA        SUNNY     75  59  57 W13       29.81F

NORTHWESTERN MEXICO

CITY           SKY/WX    TMP DP  RH WIND       PRES   REMARKS
CULIACAN       PTSUNNY   91  77  62 SW6       29.72  HX 105
DURANGO        PTSUNNY   86  36  16 NE10      30.02S
GUAYMAS        PTSUNNY   91  82  75 S15       29.64  HX 114
HERMOSILLO     PTSUNNY  102  70  35 S10       29.71  HX 110
CD. JUAREZ     MOSUNNY   99  45  15 E9        29.86  HX  94
LOS MOCHIS     PTSUNNY   91  75  59 SW12      29.70F HX 102
OBREGON        MOSUNNY   97  73  46 NW5       29.67  HX 107

NORTHEASTERN MEXICO

CITY           SKY/WX    TMP DP  RH WIND       PRES   REMARKS
CHIHUAHUA      PTSUNNY   91  48  22 E29       29.95
MATAMOROS      MOCLDY    84  77  79 E12       29.84  HX  94
MONCLOVA         N/A    N/A N/A N/A MISG        N/A
MONTERREY      PTSUNNY   84  66  54 E12G24    29.82R
NUEVO LAREDO   PTSUNNY   93  75  55 SE12      29.81  HX 104
REYNOSA        PTSUNNY   81  72  74 E12       29.83
SALTILLO       MOSUNNY   81  64  57 NE21      30.00F
TORREON        MOSUNNY   93  52  24 N3        29.87F HX  90
CD. VICTORIA   CLOUDY    75  75 100 NW10      29.80

WESTERN MEXICO

CITY           SKY/WX    TMP DP  RH WIND       PRES   REMARKS
AGUASCALIENTES PTSUNNY   77  52  41 S10       30.07
COLIMA         PTSUNNY   72  70  94 W9        29.95S FOG
GUADALAJARA    PTSUNNY   75  59  57 S8        30.02
MANZANILLO     LGT RAIN  77  75  94 SE21      29.75S
MAZATLAN       MOSUNNY   84  75  74 W10       29.68F HX  92
P. VALLARTA    CLOUDY    86  73  66 SW5       29.71F HX  93
URUAPAN        CLOUDY    64  61  88 CALM      30.10S
ZACATECAS      PTSUNNY   79  43  27 E12       30.10F

CENTRAL MEXICO

CITY           SKY/WX    TMP DP  RH WIND       PRES   REMARKS
CUERNAVACA     CLOUDY    73  61  64 CALM      30.00S
MEXICO CITY    TSTM      61  55  82 W10       30.19R
MORELIA        PTSUNNY   72  61  68 S7        30.08
POZA RICA      RAIN      75  75 100 N7        29.78R
PUEBLA         PTSUNNY   61  57  88 S9        30.21S
QUERETARO      LGT RAIN  68  57  68 N13       30.12R
S. LUIS POTOSI PTSUNNY   82  43  24 NE5       30.03F
TAMPICO        PTSUNNY   81  75  83 N5        29.70S
TOLUCA         TSTM      54  48  82 NW6       30.26F VSB 1

SOUTHERN MEXICO

CITY           SKY/WX    TMP DP  RH WIND       PRES   REMARKS
ACAPULCO       PTSUNNY   81  75  83 W13       29.80F
B. DE HUATULCO MOCLDY    79  72  78 S12       29.85
OAXACA         MOCLDY    66  61  82 SE6       30.08R
P. ESCONDIDO   MOCLDY    82  75  78 W29       29.96R
VERACRUZ       CLOUDY    81  75  83 CALM      29.77R
ZIHUATANEJO    PTSUNNY   81  73  78 N12       29.84

YUCATAN PENINSULA

CITY           SKY/WX    TMP DP  RH WIND       PRES   REMARKS
CAMPECHE       PTCLDY    90  77  66 E12       29.81R HX 102
CANCUN         PTCLDY    84  77  79 E6        29.92R HX  94
CHETUMAL       PTCLDY    86  77  74 SE12      29.85R HX  97
CD. DEL CARMEN CLOUDY    90  77  66 MISG      29.80  HX 102
COZUMEL        PTCLDY    81  77  89 E3        29.91S
MERIDA         PTCLDY    90  72  55 E8        29.85R HX  96
MINATITLAN     CLOUDY    88  75  66 CALM      29.74  HX  97
TAPACHULA      MOCLDY    84  79  84 W8        29.81R HX  96
TUX. GUTIERREZ MOCLDY    88  70  55 CALM      29.85S HX  92
VILLAHERMOSA   MOCLDY    90  77  66 E6        29.79S HX 102

CENTRAL AMERICA

CITY           SKY/WX    TMP DP  RH WIND       PRES   REMARKS
BELIZE CITY    PTCLDY    84  79  84 E9        29.85S HX  96
MANAGUA        PTCLDY    82  79  89 E9        29.80R HX  93

CARIBBEAN

CITY           SKY/WX    TMP DP  RH WIND       PRES   REMARKS
ARUBA          PTCLDY    84  75  74 E23G35    29.80S HX  92
CURACAO        PTCLDY    84  77  79 E15       29.86S HX  94
KINGSTON       PTCLDY    86  75  70 SE17      29.89R HX  95
NASSAU         MOCLDY    82  73  74 SE6       30.02R THUNDER
SAN JUAN       PTCLDY    82  77  83 E7        29.98R HX  91
SANTO DOMINGO  PTCLDY    82  73  74 SE6       29.92S
ST. KITTS      PTCLDY    82  75  78 NE14      29.97S
ST. MAARTEN    PTCLDY    84  73  70 E10       29.97S HX  91

$$



USA.gov is the U.S. government's official web portal to all federal, state and local government web resources and services.